Time,TemperatureF,DewpointF,PressureIn,WindDirection,WindDirectionDegrees,WindSpeedMPH,WindSpeedGustMPH,Humidity,HourlyPrecipIn,Conditions,Clouds,dailyrainin,SolarRadiationWatts/m^2,SoftwareType,DateUTC
2013-05-20 00:02:00,52.7,48.9,29.93,West,267,8.0,11.0,87,0.00,,,0.00,0.0,meteohub,2013-05-20 07:02:00,
2013-05-20 00:07:00,52.5,48.7,29.93,SW,223,10.0,12.0,87,0.00,,,0.00,0.0,meteohub,2013-05-20 07:07:00,
2013-05-20 00:12:00,52.5,48.7,29.93,West,279,5.0,14.0,87,0.00,,,0.00,0.0,meteohub,2013-05-20 07:12:00,
2013-05-20 00:17:00,52.5,48.7,29.93,WNW,292,11.0,14.0,87,0.00,,,0.00,0.0,meteohub,2013-05-20 07:17:00,
2013-05-20 00:22:00,52.3,48.6,29.93,WNW,288,14.0,14.0,87,0.00,,,0.00,0.0,meteohub,2013-05-20 07:22:00,
2013-05-20 00:27:00,52.5,49.1,29.93,WNW,299,10.0,14.0,88,0.00,,,0.00,0.0,meteohub,2013-05-20 07:27:00,
2013-05-20 00:32:00,52.3,48.9,29.93,WNW,290,12.0,14.0,88,0.00,,,0.00,0.0,meteohub,2013-05-20 07:32:00,
2013-05-20 00:37:00,52.2,48.7,29.93,NW,310,11.0,14.0,88,0.00,,,0.00,0.0,meteohub,2013-05-20 07:37:00,
2013-05-20 00:42:00,52.0,48.9,29.93,West,281,10.0,14.0,89,0.00,,,0.00,0.0,meteohub,2013-05-20 07:42:00,
2013-05-20 00:47:00,51.8,48.7,29.93,WNW,299,11.0,15.0,89,0.00,,,0.00,0.0,meteohub,2013-05-20 07:47:00,
2013-05-20 00:52:00,51.6,48.7,29.92,WNW,296,9.0,15.0,90,0.00,,,0.00,0.0,meteohub,2013-05-20 07:52:00,
2013-05-20 00:57:00,51.6,48.7,29.93,WNW,286,10.0,14.0,90,0.00,,,0.00,0.0,meteohub,2013-05-20 07:57:00,
2013-05-20 01:02:00,51.6,48.7,29.93,WNW,283,10.0,14.0,90,0.00,,,0.00,0.0,meteohub,2013-05-20 08:02:00,
2013-05-20 01:06:00,51.4,48.6,29.92,WNW,288,10.0,12.0,90,0.00,,,0.00,0.0,meteohub,2013-05-20 08:06:00,
2013-05-20 01:11:00,51.4,48.6,29.93,WSW,240,3.0,12.0,90,0.00,,,0.00,0.0,meteohub,2013-05-20 08:11:00,
2013-05-20 01:17:00,51.4,48.6,29.93,WNW,292,6.0,12.0,90,0.00,,,0.00,0.0,meteohub,2013-05-20 08:17:00,
2013-05-20 01:22:00,51.4,48.9,29.92,WNW,287,4.0,12.0,91,0.00,,,0.00,0.0,meteohub,2013-05-20 08:22:00,
2013-05-20 01:27:00,51.4,48.9,29.92,WNW,290,2.0,10.0,91,0.00,,,0.00,0.0,meteohub,2013-05-20 08:27:00,
2013-05-20 01:32:00,51.6,48.7,29.92,West,267,4.0,10.0,90,0.00,,,0.00,0.0,meteohub,2013-05-20 08:32:00,
2013-05-20 01:37:00,52.0,48.9,29.92,WNW,296,1.0,9.0,89,0.00,,,0.00,0.0,meteohub,2013-05-20 08:37:00,
2013-05-20 01:42:00,52.5,48.7,29.92,West,281,4.0,9.0,87,0.00,,,0.00,0.0,meteohub,2013-05-20 08:42:00,
2013-05-20 01:47:00,53.1,48.9,29.92,NW,309,5.0,9.0,86,0.00,,,0.00,0.0,meteohub,2013-05-20 08:47:00,
2013-05-20 01:52:00,53.2,49.1,29.91,WNW,292,3.0,9.0,86,0.00,,,0.00,0.0,meteohub,2013-05-20 08:52:00,
2013-05-20 01:57:00,53.4,49.1,29.91,NNE,32,0.0,9.0,85,0.00,,,0.00,0.0,meteohub,2013-05-20 08:57:00,
2013-05-20 02:02:00,53.6,48.9,29.91,West,276,4.0,9.0,84,0.00,,,0.00,0.0,meteohub,2013-05-20 09:02:00,
2013-05-20 02:07:00,53.2,48.9,29.91,WSW,252,4.0,9.0,85,0.00,,,0.00,0.0,meteohub,2013-05-20 09:07:00,
2013-05-20 02:12:00,53.1,48.9,29.91,WSW,245,0.0,11.0,86,0.00,,,0.00,0.0,meteohub,2013-05-20 09:12:00,
2013-05-20 02:17:00,52.9,48.6,29.91,East,98,0.0,11.0,85,0.00,,,0.00,0.0,meteohub,2013-05-20 09:17:00,
2013-05-20 02:22:00,52.5,48.4,29.91,East,98,0.0,11.0,86,0.00,,,0.00,0.0,meteohub,2013-05-20 09:22:00,
2013-05-20 02:27:00,52.2,48.4,29.91,East,93,0.0,7.0,87,0.00,,,0.00,0.0,meteohub,2013-05-20 09:27:00,
2013-05-20 02:32:00,52.2,48.4,29.91,East,93,1.0,4.0,87,0.00,,,0.00,0.0,meteohub,2013-05-20 09:32:00,
2013-05-20 02:37:00,52.2,48.4,29.91,East,93,0.0,3.0,87,0.00,,,0.00,0.0,meteohub,2013-05-20 09:37:00,
2013-05-20 02:42:00,52.3,48.9,29.92,WSW,240,4.0,4.0,88,0.00,,,0.00,0.0,meteohub,2013-05-20 09:42:00,
2013-05-20 02:47:00,52.5,48.7,29.91,West,268,3.0,7.0,87,0.00,,,0.00,0.0,meteohub,2013-05-20 09:47:00,
2013-05-20 02:52:00,52.5,48.7,29.92,West,281,9.0,10.0,87,0.00,,,0.00,0.0,meteohub,2013-05-20 09:52:00,
2013-05-20 02:57:00,52.5,48.7,29.92,WSW,249,4.0,14.0,87,0.00,,,0.00,0.0,meteohub,2013-05-20 09:57:00,
2013-05-20 03:02:00,52.5,48.7,29.91,West,274,3.0,14.0,87,0.00,,,0.00,0.0,meteohub,2013-05-20 10:02:00,
2013-05-20 03:07:00,52.3,48.6,29.92,WSW,254,2.0,14.0,87,0.00,,,0.00,0.0,meteohub,2013-05-20 10:07:00,
2013-05-20 03:12:00,52.0,48.6,29.92,WSW,258,4.0,10.0,88,0.00,,,0.00,0.0,meteohub,2013-05-20 10:12:00,
2013-05-20 03:17:00,51.6,48.6,29.92,WNW,287,3.0,8.0,89,0.00,,,0.00,0.0,meteohub,2013-05-20 10:17:00,
2013-05-20 03:22:00,51.4,48.6,29.92,WNW,300,6.0,7.0,90,0.00,,,0.00,0.0,meteohub,2013-05-20 10:22:00,
2013-05-20 03:27:00,51.6,48.7,29.92,NW,307,9.0,10.0,90,0.00,,,0.00,0.0,meteohub,2013-05-20 10:27:00,
2013-05-20 03:32:00,51.6,48.7,29.92,WNW,294,5.0,10.0,90,0.00,,,0.00,0.0,meteohub,2013-05-20 10:32:00,
2013-05-20 03:37:00,52.0,49.1,29.92,NW,305,4.0,9.0,90,0.00,,,0.00,0.0,meteohub,2013-05-20 10:37:00,
2013-05-20 03:42:00,52.3,49.3,29.92,WNW,299,6.0,9.0,89,0.00,,,0.00,0.0,meteohub,2013-05-20 10:42:00,
2013-05-20 03:47:00,52.7,49.3,29.92,West,281,3.0,8.0,88,0.00,,,0.00,0.0,meteohub,2013-05-20 10:47:00,
2013-05-20 03:52:00,53.2,49.1,29.92,WNW,303,2.0,7.0,86,0.00,,,0.00,0.0,meteohub,2013-05-20 10:52:00,
2013-05-20 03:57:00,53.1,48.7,29.92,WNW,303,0.0,6.0,85,0.00,,,0.00,0.0,meteohub,2013-05-20 10:57:00,
2013-05-20 04:02:00,52.3,48.6,29.92,WNW,303,0.0,5.0,87,0.00,,,0.00,0.0,meteohub,2013-05-20 11:02:00,
2013-05-20 04:07:00,52.0,48.2,29.92,WNW,303,0.0,5.0,87,0.00,,,0.00,0.0,meteohub,2013-05-20 11:07:00,
2013-05-20 04:12:00,51.6,48.2,29.92,West,271,0.0,2.0,88,0.00,,,0.00,0.0,meteohub,2013-05-20 11:12:00,
2013-05-20 04:17:00,51.6,48.6,29.92,West,271,3.0,3.0,89,0.00,,,0.00,0.0,meteohub,2013-05-20 11:17:00,
2013-05-20 04:22:00,52.3,48.9,29.92,West,281,4.0,4.0,88,0.00,,,0.00,0.0,meteohub,2013-05-20 11:22:00,
2013-05-20 04:27:00,52.9,48.7,29.92,WNW,284,0.0,4.0,86,0.00,,,0.00,0.0,meteohub,2013-05-20 11:27:00,
2013-05-20 04:32:00,52.5,48.4,29.91,WNW,285,0.0,4.0,86,0.00,,,0.00,0.0,meteohub,2013-05-20 11:32:00,
2013-05-20 04:37:00,52.0,47.8,29.92,WNW,284,0.0,4.0,86,0.00,,,0.00,0.0,meteohub,2013-05-20 11:37:00,
2013-05-20 04:42:00,51.6,48.2,29.91,WNW,284,2.0,3.0,88,0.00,,,0.00,0.0,meteohub,2013-05-20 11:42:00,
2013-05-20 04:47:00,51.4,48.0,29.91,WNW,298,1.0,5.0,88,0.00,,,0.00,0.0,meteohub,2013-05-20 11:47:00,
2013-05-20 04:52:00,51.4,48.0,29.91,WNW,298,0.0,5.0,88,0.00,,,0.00,0.0,meteohub,2013-05-20 11:52:00,
2013-05-20 04:57:00,51.3,47.8,29.91,WNW,298,0.0,5.0,88,0.00,,,0.00,0.0,meteohub,2013-05-20 11:57:00,
2013-05-20 05:01:00,51.1,48.0,29.91,WNW,298,0.0,4.0,89,0.00,,,0.00,0.0,meteohub,2013-05-20 12:01:00,
2013-05-20 05:07:00,51.1,48.0,29.91,WNW,298,0.0,0.0,89,0.00,,,0.00,0.0,meteohub,2013-05-20 12:07:00,
2013-05-20 05:12:00,50.9,48.0,29.91,WNW,298,0.0,0.0,90,0.00,,,0.00,0.0,meteohub,2013-05-20 12:12:00,
2013-05-20 05:17:00,50.7,47.7,29.91,WNW,298,2.0,0.0,89,0.00,,,0.00,0.0,meteohub,2013-05-20 12:17:00,
2013-05-20 05:22:00,51.8,48.0,29.91,NNW,340,0.0,2.0,87,0.00,,,0.00,0.0,meteohub,2013-05-20 12:22:00,
2013-05-20 05:27:00,53.1,48.4,29.91,NNE,22,0.0,2.0,84,0.00,,,0.00,0.0,meteohub,2013-05-20 12:27:00,
2013-05-20 05:32:00,54.0,48.6,29.91,NNE,22,0.0,2.0,82,0.00,,,0.00,0.0,meteohub,2013-05-20 12:32:00,
2013-05-20 05:37:00,53.4,48.4,29.91,WNW,284,3.0,3.0,83,0.00,,,0.00,0.0,meteohub,2013-05-20 12:37:00,
2013-05-20 05:42:00,53.1,48.4,29.91,West,275,3.0,4.0,84,0.00,,,0.00,0.0,meteohub,2013-05-20 12:42:00,
2013-05-20 05:47:00,53.2,48.9,29.91,WNW,294,1.0,4.0,85,0.00,,,0.00,0.0,meteohub,2013-05-20 12:47:00,
2013-05-20 05:52:00,53.8,49.5,29.92,WNW,294,2.0,4.0,85,0.00,,,0.00,0.0,meteohub,2013-05-20 12:52:00,
2013-05-20 05:57:00,54.0,49.3,29.91,WNW,294,3.0,4.0,84,0.00,,,0.00,7.0,meteohub,2013-05-20 12:57:00,
2013-05-20 06:02:00,54.3,49.3,29.92,WNW,294,2.0,4.0,83,0.00,,,0.00,9.0,meteohub,2013-05-20 13:02:00,
2013-05-20 06:07:00,55.0,48.9,29.92,WNW,294,1.0,4.0,80,0.00,,,0.00,11.0,meteohub,2013-05-20 13:07:00,
2013-05-20 06:12:00,53.8,48.4,29.92,WNW,294,2.0,4.0,82,0.00,,,0.00,14.0,meteohub,2013-05-20 13:12:00,
2013-05-20 06:17:00,53.4,48.7,29.92,WNW,296,2.0,3.0,84,0.00,,,0.00,18.0,meteohub,2013-05-20 13:17:00,
2013-05-20 06:22:00,54.0,48.9,29.92,WNW,296,0.0,4.0,83,0.00,,,0.00,19.0,meteohub,2013-05-20 13:22:00,
2013-05-20 06:27:00,53.2,48.6,29.93,WNW,296,1.0,4.0,84,0.00,,,0.00,23.0,meteohub,2013-05-20 13:27:00,
2013-05-20 06:32:00,53.2,48.9,29.93,WNW,296,2.0,3.0,85,0.00,,,0.00,25.0,meteohub,2013-05-20 13:32:00,
2013-05-20 06:37:00,53.6,49.3,29.93,WNW,296,0.0,3.0,85,0.00,,,0.00,26.0,meteohub,2013-05-20 13:37:00,
2013-05-20 06:42:00,54.0,49.3,29.93,WNW,296,0.0,3.0,84,0.00,,,0.00,28.0,meteohub,2013-05-20 13:42:00,
2013-05-20 06:47:00,53.6,49.5,29.93,WNW,296,0.0,3.0,86,0.00,,,0.00,30.0,meteohub,2013-05-20 13:47:00,
2013-05-20 06:52:00,54.3,49.8,29.93,WNW,296,0.0,0.0,85,0.00,,,0.00,51.0,meteohub,2013-05-20 13:52:00,
2013-05-20 06:57:00,54.3,49.8,29.93,WNW,296,0.0,0.0,85,0.00,,,0.00,37.0,meteohub,2013-05-20 13:57:00,
2013-05-20 07:02:00,55.0,50.4,29.93,WNW,296,0.0,0.0,84,0.00,,,0.00,142.0,meteohub,2013-05-20 14:02:00,
2013-05-20 07:07:00,55.0,50.4,29.93,WNW,296,0.0,0.0,84,0.00,,,0.00,162.0,meteohub,2013-05-20 14:07:00,
2013-05-20 07:12:00,55.6,50.9,29.93,WNW,296,0.0,0.0,84,0.00,,,0.00,179.0,meteohub,2013-05-20 14:12:00,
2013-05-20 07:17:00,55.9,50.9,29.93,WNW,296,0.0,0.0,83,0.00,,,0.00,199.0,meteohub,2013-05-20 14:17:00,
2013-05-20 07:22:00,56.8,52.0,29.93,East,84,1.0,0.0,84,0.00,,,0.00,216.0,meteohub,2013-05-20 14:22:00,
2013-05-20 07:27:00,58.5,53.2,29.93,ENE,67,1.0,2.0,83,0.00,,,0.00,234.0,meteohub,2013-05-20 14:27:00,
2013-05-20 07:32:00,59.4,53.8,29.93,ENE,71,1.0,3.0,82,0.00,,,0.00,250.0,meteohub,2013-05-20 14:32:00,
2013-05-20 07:37:00,60.1,54.3,29.93,NE,55,3.0,3.0,81,0.00,,,0.00,269.0,meteohub,2013-05-20 14:37:00,
2013-05-20 07:41:00,60.4,54.3,29.93,ENE,57,0.0,4.0,80,0.00,,,0.00,283.0,meteohub,2013-05-20 14:41:00,
2013-05-20 07:46:00,61.2,54.7,29.93,ENE,57,0.0,4.0,79,0.00,,,0.00,301.0,meteohub,2013-05-20 14:46:00,
2013-05-20 07:51:00,62.1,55.0,29.93,ENE,57,0.0,4.0,78,0.00,,,0.00,318.0,meteohub,2013-05-20 14:51:00,
2013-05-20 07:57:00,62.2,54.5,29.93,ESE,102,1.0,4.0,76,0.00,,,0.00,336.0,meteohub,2013-05-20 14:57:00,
2013-05-20 08:02:00,62.4,54.3,29.93,SE,130,0.0,2.0,75,0.00,,,0.00,352.0,meteohub,2013-05-20 15:02:00,
2013-05-20 08:07:00,63.0,55.2,29.93,SSE,160,2.0,2.0,76,0.00,,,0.00,369.0,meteohub,2013-05-20 15:07:00,
2013-05-20 08:12:00,62.4,54.3,29.93,SSE,161,1.0,2.0,75,0.00,,,0.00,385.0,meteohub,2013-05-20 15:12:00,
2013-05-20 08:17:00,63.0,55.2,29.93,SSE,163,0.0,2.0,76,0.00,,,0.00,404.0,meteohub,2013-05-20 15:17:00,
2013-05-20 08:22:00,63.9,55.0,29.93,SSE,162,1.0,2.0,73,0.00,,,0.00,417.0,meteohub,2013-05-20 15:22:00,
2013-05-20 08:27:00,64.2,55.4,29.94,SSE,162,0.0,2.0,73,0.00,,,0.00,434.0,meteohub,2013-05-20 15:27:00,
2013-05-20 08:32:00,64.2,55.4,29.94,South,171,0.0,2.0,73,0.00,,,0.00,450.0,meteohub,2013-05-20 15:32:00,
2013-05-20 08:37:00,64.9,55.4,29.94,South,171,0.0,3.0,71,0.00,,,0.00,468.0,meteohub,2013-05-20 15:37:00,
2013-05-20 08:42:00,65.7,54.9,29.94,South,171,1.0,3.0,68,0.00,,,0.00,483.0,meteohub,2013-05-20 15:42:00,
2013-05-20 08:47:00,66.6,54.5,29.94,SSE,163,1.0,3.0,65,0.00,,,0.00,499.0,meteohub,2013-05-20 15:47:00,
2013-05-20 08:52:00,67.5,54.5,29.94,SE,138,1.0,4.0,63,0.00,,,0.00,515.0,meteohub,2013-05-20 15:52:00,
2013-05-20 08:57:00,68.4,54.9,29.94,ESE,113,0.0,4.0,62,0.00,,,0.00,531.0,meteohub,2013-05-20 15:57:00,
2013-05-20 09:01:00,68.5,54.5,29.94,ESE,104,2.0,4.0,61,0.00,,,0.00,547.0,meteohub,2013-05-20 16:01:00,
2013-05-20 09:06:00,69.8,55.2,29.94,ESE,114,1.0,4.0,60,0.00,,,0.00,563.0,meteohub,2013-05-20 16:06:00,
2013-05-20 09:11:00,70.5,54.1,29.94,ESE,114,1.0,4.0,56,0.00,,,0.00,580.0,meteohub,2013-05-20 16:11:00,
2013-05-20 09:16:00,71.2,54.7,29.94,ESE,111,0.0,4.0,56,0.00,,,0.00,596.0,meteohub,2013-05-20 16:16:00,
2013-05-20 09:21:00,72.5,53.4,29.94,ESE,109,3.0,3.0,51,0.00,,,0.00,610.0,meteohub,2013-05-20 16:21:00,
2013-05-20 09:26:00,73.2,52.3,29.94,ENE,77,0.0,3.0,48,0.00,,,0.00,626.0,meteohub,2013-05-20 16:26:00,
2013-05-20 09:31:00,73.2,51.8,29.94,ENE,77,1.0,4.0,47,0.00,,,0.00,643.0,meteohub,2013-05-20 16:31:00,
2013-05-20 09:37:00,73.8,54.5,29.94,SSE,150,1.0,5.0,51,0.00,,,0.00,654.0,meteohub,2013-05-20 16:37:00,
2013-05-20 09:42:00,73.9,53.6,29.94,ESE,119,0.0,5.0,49,0.00,,,0.00,671.0,meteohub,2013-05-20 16:42:00,
2013-05-20 09:47:00,73.8,55.0,29.93,SW,232,0.0,5.0,52,0.00,,,0.00,686.0,meteohub,2013-05-20 16:47:00,
2013-05-20 09:52:00,72.1,55.0,29.94,SW,233,4.0,5.0,55,0.00,,,0.00,700.0,meteohub,2013-05-20 16:52:00,
2013-05-20 09:57:00,71.8,54.7,29.94,SW,232,2.0,5.0,55,0.00,,,0.00,715.0,meteohub,2013-05-20 16:57:00,
2013-05-20 10:02:00,72.0,54.9,29.94,WSW,242,1.0,5.0,55,0.00,,,0.00,719.0,meteohub,2013-05-20 17:02:00,
2013-05-20 10:07:00,72.3,54.1,29.94,South,186,4.0,9.0,53,0.00,,,0.00,735.0,meteohub,2013-05-20 17:07:00,
2013-05-20 10:12:00,73.0,55.4,29.93,WSW,250,3.0,9.0,54,0.00,,,0.00,749.0,meteohub,2013-05-20 17:12:00,
2013-05-20 10:17:00,73.2,55.0,29.94,WNW,288,3.0,9.0,53,0.00,,,0.00,759.0,meteohub,2013-05-20 17:17:00,
2013-05-20 10:22:00,72.9,55.8,29.93,SW,215,2.0,6.0,55,0.00,,,0.00,775.0,meteohub,2013-05-20 17:22:00,
2013-05-20 10:27:00,72.3,53.2,29.93,SW,234,4.0,6.0,51,0.00,,,0.00,788.0,meteohub,2013-05-20 17:27:00,
2013-05-20 10:32:00,72.5,52.9,29.94,SW,229,1.0,6.0,50,0.00,,,0.00,800.0,meteohub,2013-05-20 17:32:00,
2013-05-20 10:37:00,73.2,52.9,29.93,WSW,247,3.0,6.0,49,0.00,,,0.00,809.0,meteohub,2013-05-20 17:37:00,
2013-05-20 10:42:00,72.3,53.2,29.93,WSW,239,5.0,8.0,51,0.00,,,0.00,821.0,meteohub,2013-05-20 17:42:00,
2013-05-20 10:47:00,72.5,53.4,29.94,WSW,244,3.0,10.0,51,0.00,,,0.00,833.0,meteohub,2013-05-20 17:47:00,
2013-05-20 10:52:00,73.0,53.2,29.94,SW,229,4.0,10.0,50,0.00,,,0.00,840.0,meteohub,2013-05-20 17:52:00,
2013-05-20 10:57:00,73.0,53.8,29.93,West,268,2.0,10.0,51,0.00,,,0.00,851.0,meteohub,2013-05-20 17:57:00,
2013-05-20 11:02:00,73.0,53.2,29.94,WSW,242,2.0,9.0,50,0.00,,,0.00,860.0,meteohub,2013-05-20 18:02:00,
2013-05-20 11:07:00,73.8,54.5,29.94,West,269,2.0,10.0,51,0.00,,,0.00,868.0,meteohub,2013-05-20 18:07:00,
2013-05-20 11:12:00,73.2,54.0,29.94,SSW,213,3.0,10.0,51,0.00,,,0.00,874.0,meteohub,2013-05-20 18:12:00,
2013-05-20 11:17:00,72.5,54.0,29.94,WSW,238,5.0,11.0,52,0.00,,,0.00,888.0,meteohub,2013-05-20 18:17:00,
2013-05-20 11:21:00,71.1,53.1,29.94,SW,229,10.0,13.0,53,0.00,,,0.00,891.0,meteohub,2013-05-20 18:21:00,
2013-05-20 11:26:00,70.3,52.3,29.94,SW,225,6.0,16.0,53,0.00,,,0.00,902.0,meteohub,2013-05-20 18:26:00,
2013-05-20 11:31:00,70.3,52.3,29.94,WSW,244,10.0,16.0,53,0.00,,,0.00,909.0,meteohub,2013-05-20 18:31:00,
2013-05-20 11:36:00,69.4,52.5,29.94,SW,225,6.0,17.0,55,0.00,,,0.00,916.0,meteohub,2013-05-20 18:36:00,
2013-05-20 11:41:00,69.4,52.5,29.94,SW,229,6.0,17.0,55,0.00,,,0.00,923.0,meteohub,2013-05-20 18:41:00,
2013-05-20 11:46:00,70.9,53.4,29.94,NW,304,2.0,17.0,54,0.00,,,0.00,930.0,meteohub,2013-05-20 18:46:00,
2013-05-20 11:51:00,70.2,52.7,29.94,WNW,291,2.0,14.0,54,0.00,,,0.00,937.0,meteohub,2013-05-20 18:51:00,
2013-05-20 11:56:00,70.5,52.5,29.94,West,263,10.0,13.0,53,0.00,,,0.00,944.0,meteohub,2013-05-20 18:56:00,
2013-05-20 12:01:00,71.8,53.2,29.94,WNW,284,4.0,13.0,52,0.00,,,0.00,949.0,meteohub,2013-05-20 19:01:00,
2013-05-20 12:06:00,72.7,51.8,29.94,WNW,303,5.0,12.0,48,0.00,,,0.00,954.0,meteohub,2013-05-20 19:06:00,
2013-05-20 12:11:00,72.9,50.9,29.94,West,277,9.0,13.0,46,0.00,,,0.00,960.0,meteohub,2013-05-20 19:11:00,
2013-05-20 12:16:00,72.9,51.4,29.94,West,280,6.0,13.0,47,0.00,,,0.00,967.0,meteohub,2013-05-20 19:16:00,
2013-05-20 12:21:00,73.2,52.9,29.94,West,265,6.0,13.0,49,0.00,,,0.00,969.0,meteohub,2013-05-20 19:21:00,
2013-05-20 12:26:00,72.9,52.5,29.94,WNW,294,4.0,11.0,49,0.00,,,0.00,970.0,meteohub,2013-05-20 19:26:00,
2013-05-20 12:31:00,72.0,53.4,29.94,West,275,6.0,10.0,52,0.00,,,0.00,974.0,meteohub,2013-05-20 19:31:00,
2013-05-20 12:36:00,70.3,52.3,29.94,West,263,7.0,10.0,53,0.00,,,0.00,974.0,meteohub,2013-05-20 19:36:00,
2013-05-20 12:41:00,70.2,51.8,29.94,West,273,6.0,13.0,52,0.00,,,0.00,976.0,meteohub,2013-05-20 19:41:00,
2013-05-20 12:46:00,70.0,51.6,29.94,West,275,7.0,13.0,52,0.00,,,0.00,976.0,meteohub,2013-05-20 19:46:00,
2013-05-20 12:51:00,70.5,52.5,29.94,WNW,285,7.0,13.0,53,0.00,,,0.00,977.0,meteohub,2013-05-20 19:51:00,
2013-05-20 12:57:00,69.8,52.0,29.94,WSW,253,9.0,15.0,53,0.00,,,0.00,977.0,meteohub,2013-05-20 19:57:00,
2013-05-20 13:02:00,68.9,52.5,29.94,South,190,4.0,15.0,56,0.00,,,0.00,977.0,meteohub,2013-05-20 20:02:00,
2013-05-20 13:07:00,68.4,51.6,29.94,WSW,242,14.0,15.0,55,0.00,,,0.00,979.0,meteohub,2013-05-20 20:07:00,
2013-05-20 13:12:00,68.5,52.2,29.94,West,265,4.0,15.0,56,0.00,,,0.00,976.0,meteohub,2013-05-20 20:12:00,
2013-05-20 13:17:00,69.1,52.7,29.94,West,261,5.0,14.0,56,0.00,,,0.00,979.0,meteohub,2013-05-20 20:17:00,
2013-05-20 13:22:00,68.5,52.2,29.94,WSW,246,5.0,14.0,56,0.00,,,0.00,976.0,meteohub,2013-05-20 20:22:00,
2013-05-20 13:27:00,69.4,52.2,29.94,WSW,252,3.0,16.0,54,0.00,,,0.00,977.0,meteohub,2013-05-20 20:27:00,
2013-05-20 13:32:00,69.6,52.2,29.93,West,281,4.0,16.0,54,0.00,,,0.00,972.0,meteohub,2013-05-20 20:32:00,
2013-05-20 13:37:00,70.2,52.2,29.93,WSW,255,4.0,16.0,53,0.00,,,0.00,969.0,meteohub,2013-05-20 20:37:00,
2013-05-20 13:42:00,70.3,52.3,29.93,West,259,3.0,16.0,53,0.00,,,0.00,965.0,meteohub,2013-05-20 20:42:00,
2013-05-20 13:47:00,70.5,52.0,29.93,West,272,5.0,16.0,52,0.00,,,0.00,960.0,meteohub,2013-05-20 20:47:00,
2013-05-20 13:52:00,69.4,51.6,29.93,NW,316,5.0,17.0,53,0.00,,,0.00,962.0,meteohub,2013-05-20 20:52:00,
2013-05-20 13:57:00,68.4,52.0,29.94,WSW,245,4.0,17.0,56,0.00,,,0.00,954.0,meteohub,2013-05-20 20:57:00,
2013-05-20 14:02:00,67.3,52.0,29.94,SW,215,10.0,17.0,58,0.00,,,0.00,953.0,meteohub,2013-05-20 21:02:00,
2013-05-20 14:07:00,66.4,52.5,29.94,WSW,248,8.0,15.0,61,0.00,,,0.00,944.0,meteohub,2013-05-20 21:07:00,
2013-05-20 14:12:00,66.6,52.2,29.94,SSW,213,11.0,18.0,60,0.00,,,0.00,939.0,meteohub,2013-05-20 21:12:00,
2013-05-20 14:17:00,66.6,52.2,29.94,SW,223,12.0,18.0,60,0.00,,,0.00,933.0,meteohub,2013-05-20 21:17:00,
2013-05-20 14:22:00,66.2,52.9,29.94,West,276,4.0,18.0,62,0.00,,,0.00,930.0,meteohub,2013-05-20 21:22:00,
2013-05-20 14:27:00,65.5,52.5,29.94,WSW,239,11.0,18.0,63,0.00,,,0.00,919.0,meteohub,2013-05-20 21:27:00,
2013-05-20 14:32:00,65.1,52.2,29.93,SW,233,7.0,17.0,63,0.00,,,0.00,916.0,meteohub,2013-05-20 21:32:00,
2013-05-20 14:37:00,65.5,52.5,29.93,WSW,239,5.0,17.0,63,0.00,,,0.00,909.0,meteohub,2013-05-20 21:37:00,
2013-05-20 14:42:00,65.5,52.5,29.93,West,269,10.0,16.0,63,0.00,,,0.00,898.0,meteohub,2013-05-20 21:42:00,
2013-05-20 14:47:00,65.5,52.2,29.93,SSW,213,2.0,16.0,62,0.00,,,0.00,896.0,meteohub,2013-05-20 21:47:00,
2013-05-20 14:52:00,64.4,52.0,29.93,WSW,242,6.0,16.0,64,0.00,,,0.00,893.0,meteohub,2013-05-20 21:52:00,
2013-05-20 14:57:00,64.2,52.2,29.93,SSE,154,6.0,16.0,65,0.00,,,0.00,877.0,meteohub,2013-05-20 21:57:00,
2013-05-20 15:02:00,63.7,51.6,29.92,West,271,4.0,16.0,65,0.00,,,0.00,875.0,meteohub,2013-05-20 22:02:00,
2013-05-20 15:07:00,63.7,52.2,29.92,SW,221,7.0,16.0,66,0.00,,,0.00,870.0,meteohub,2013-05-20 22:07:00,
2013-05-20 15:12:00,63.3,51.8,29.92,West,269,8.0,16.0,66,0.00,,,0.00,863.0,meteohub,2013-05-20 22:12:00,
2013-05-20 15:17:00,63.0,51.8,29.92,West,259,7.0,17.0,67,0.00,,,0.00,844.0,meteohub,2013-05-20 22:17:00,
2013-05-20 15:22:00,63.3,52.2,29.92,WNW,285,12.0,21.0,67,0.00,,,0.00,798.0,meteohub,2013-05-20 22:22:00,
2013-05-20 15:27:00,62.8,52.0,29.92,WNW,291,5.0,21.0,68,0.00,,,0.00,807.0,meteohub,2013-05-20 22:27:00,
2013-05-20 15:32:00,63.0,52.2,29.91,SSW,209,12.0,17.0,68,0.00,,,0.00,788.0,meteohub,2013-05-20 22:32:00,
2013-05-20 15:37:00,62.8,52.0,29.91,West,262,4.0,17.0,68,0.00,,,0.00,802.0,meteohub,2013-05-20 22:37:00,
2013-05-20 15:42:00,62.8,52.0,29.91,West,271,9.0,16.0,68,0.00,,,0.00,793.0,meteohub,2013-05-20 22:42:00,
2013-05-20 15:47:00,63.3,52.2,29.91,West,278,9.0,15.0,67,0.00,,,0.00,784.0,meteohub,2013-05-20 22:47:00,
2013-05-20 15:52:00,63.1,51.6,29.91,West,263,5.0,14.0,66,0.00,,,0.00,770.0,meteohub,2013-05-20 22:52:00,
2013-05-20 15:57:00,63.1,51.6,29.91,WSW,238,6.0,17.0,66,0.00,,,0.00,738.0,meteohub,2013-05-20 22:57:00,
2013-05-20 16:02:00,63.7,52.2,29.91,SW,223,4.0,17.0,66,0.00,,,0.00,745.0,meteohub,2013-05-20 23:02:00,
2013-05-20 16:07:00,63.7,52.2,29.91,WSW,255,6.0,17.0,66,0.00,,,0.00,742.0,meteohub,2013-05-20 23:07:00,
2013-05-20 16:12:00,62.8,52.0,29.91,West,269,12.0,14.0,68,0.00,,,0.00,649.0,meteohub,2013-05-20 23:12:00,
2013-05-20 16:17:00,62.4,52.2,29.91,West,275,3.0,15.0,69,0.00,,,0.00,645.0,meteohub,2013-05-20 23:17:00,
2013-05-20 16:22:00,61.9,51.6,29.91,WNW,299,3.0,15.0,69,0.00,,,0.00,710.0,meteohub,2013-05-20 23:22:00,
2013-05-20 16:27:00,61.0,51.1,29.91,West,261,11.0,15.0,70,0.00,,,0.00,687.0,meteohub,2013-05-20 23:27:00,
2013-05-20 16:32:00,60.4,51.1,29.91,WNW,296,11.0,16.0,71,0.00,,,0.00,585.0,meteohub,2013-05-20 23:32:00,
2013-05-20 16:37:00,60.3,51.3,29.91,WNW,286,4.0,21.0,72,0.00,,,0.00,619.0,meteohub,2013-05-20 23:37:00,
2013-05-20 16:42:00,60.1,51.1,29.91,West,264,4.0,22.0,72,0.00,,,0.00,636.0,meteohub,2013-05-20 23:42:00,
2013-05-20 16:47:00,60.3,51.3,29.91,WSW,247,11.0,22.0,72,0.00,,,0.00,647.0,meteohub,2013-05-20 23:47:00,
2013-05-20 16:52:00,60.3,51.3,29.90,West,280,11.0,21.0,72,0.00,,,0.00,613.0,meteohub,2013-05-20 23:52:00,
2013-05-20 16:57:00,59.7,51.1,29.90,West,271,6.0,19.0,73,0.00,,,0.00,580.0,meteohub,2013-05-20 23:57:00,
2013-05-20 17:02:00,59.4,51.1,29.90,WNW,284,5.0,17.0,74,0.00,,,0.00,529.0,meteohub,2013-05-21 00:02:00,
2013-05-20 17:07:00,59.7,51.4,29.90,West,259,11.0,15.0,74,0.00,,,0.00,483.0,meteohub,2013-05-21 00:07:00,
2013-05-20 17:12:00,59.7,51.1,29.89,West,265,10.0,15.0,73,0.00,,,0.00,441.0,meteohub,2013-05-21 00:12:00,
2013-05-20 17:17:00,59.4,51.1,29.90,WNW,296,9.0,16.0,74,0.00,,,0.00,441.0,meteohub,2013-05-21 00:17:00,
2013-05-20 17:22:00,58.6,51.1,29.90,WSW,258,14.0,18.0,76,0.00,,,0.00,457.0,meteohub,2013-05-21 00:22:00,
2013-05-20 17:27:00,57.9,50.4,29.90,WSW,257,6.0,18.0,76,0.00,,,0.00,469.0,meteohub,2013-05-21 00:27:00,
2013-05-20 17:32:00,57.7,50.5,29.89,West,275,6.0,18.0,77,0.00,,,0.00,436.0,meteohub,2013-05-21 00:32:00,
2013-05-20 17:37:00,57.6,50.4,29.89,West,263,9.0,17.0,77,0.00,,,0.00,329.0,meteohub,2013-05-21 00:37:00,
2013-05-20 17:42:00,57.0,50.2,29.90,SW,225,4.0,17.0,78,0.00,,,0.00,371.0,meteohub,2013-05-21 00:42:00,
2013-05-20 17:47:00,56.8,50.4,29.90,West,267,5.0,18.0,79,0.00,,,0.00,394.0,meteohub,2013-05-21 00:47:00,
2013-05-20 17:52:00,56.7,50.2,29.89,WNW,298,5.0,18.0,79,0.00,,,0.00,438.0,meteohub,2013-05-21 00:52:00,
2013-05-20 17:57:00,56.7,50.2,29.89,West,275,5.0,17.0,79,0.00,,,0.00,459.0,meteohub,2013-05-21 00:57:00,
2013-05-20 18:02:00,56.3,50.2,29.89,WNW,297,6.0,20.0,80,0.00,,,0.00,373.0,meteohub,2013-05-21 01:02:00,
2013-05-20 18:07:00,55.9,49.8,29.89,West,262,3.0,20.0,80,0.00,,,0.00,283.0,meteohub,2013-05-21 01:07:00,
2013-05-20 18:12:00,55.9,50.2,29.89,WSW,248,6.0,20.0,81,0.00,,,0.00,357.0,meteohub,2013-05-21 01:12:00,
2013-05-20 18:17:00,55.9,50.2,29.89,WSW,249,6.0,17.0,81,0.00,,,0.00,304.0,meteohub,2013-05-21 01:17:00,
2013-05-20 18:22:00,55.9,50.2,29.88,West,271,10.0,17.0,81,0.00,,,0.00,325.0,meteohub,2013-05-21 01:22:00,
2013-05-20 18:27:00,55.8,50.0,29.88,WSW,257,6.0,18.0,81,0.00,,,0.00,302.0,meteohub,2013-05-21 01:27:00,
2013-05-20 18:32:00,55.6,49.8,29.88,WNW,288,9.0,18.0,81,0.00,,,0.00,287.0,meteohub,2013-05-21 01:32:00,
2013-05-20 18:37:00,55.8,50.0,29.88,WSW,237,2.0,18.0,81,0.00,,,0.00,262.0,meteohub,2013-05-21 01:37:00,
2013-05-20 18:42:00,55.6,49.8,29.89,WNW,294,8.0,18.0,81,0.00,,,0.00,239.0,meteohub,2013-05-21 01:42:00,
2013-05-20 18:47:00,55.2,49.8,29.88,West,277,9.0,18.0,82,0.00,,,0.00,197.0,meteohub,2013-05-21 01:47:00,
2013-05-20 18:52:00,55.2,49.8,29.89,West,274,4.0,16.0,82,0.00,,,0.00,162.0,meteohub,2013-05-21 01:52:00,
2013-05-20 18:57:00,54.7,49.6,29.88,WSW,241,10.0,16.0,83,0.00,,,0.00,144.0,meteohub,2013-05-21 01:57:00,
2013-05-20 19:02:00,54.3,49.6,29.88,SW,221,4.0,19.0,84,0.00,,,0.00,134.0,meteohub,2013-05-21 02:02:00,
2013-05-20 19:07:00,54.0,49.3,29.88,West,263,6.0,19.0,84,0.00,,,0.00,70.0,meteohub,2013-05-21 02:07:00,
2013-05-20 19:12:00,53.8,49.5,29.88,West,259,5.0,17.0,85,0.00,,,0.00,88.0,meteohub,2013-05-21 02:12:00,
2013-05-20 19:17:00,53.4,49.1,29.88,West,261,11.0,17.0,85,0.00,,,0.00,54.0,meteohub,2013-05-21 02:17:00,
2013-05-20 19:22:00,53.2,49.1,29.88,WSW,252,6.0,19.0,86,0.00,,,0.00,51.0,meteohub,2013-05-21 02:22:00,
2013-05-20 19:27:00,53.1,48.9,29.88,WNW,288,5.0,19.0,86,0.00,,,0.00,46.0,meteohub,2013-05-21 02:27:00,
2013-05-20 19:32:00,52.9,49.1,29.88,WSW,248,5.0,18.0,87,0.00,,,0.00,51.0,meteohub,2013-05-21 02:32:00,
2013-05-20 19:37:00,52.7,48.9,29.88,SW,223,7.0,18.0,87,0.00,,,0.00,44.0,meteohub,2013-05-21 02:37:00,
2013-05-20 19:42:00,52.7,48.9,29.88,West,263,6.0,18.0,87,0.00,,,0.00,30.0,meteohub,2013-05-21 02:42:00,
2013-05-20 19:46:00,52.5,48.7,29.88,WSW,257,6.0,17.0,87,0.00,,,0.00,23.0,meteohub,2013-05-21 02:46:00,
2013-05-20 19:52:00,52.3,48.9,29.88,WSW,250,4.0,16.0,88,0.00,,,0.00,18.0,meteohub,2013-05-21 02:52:00,
2013-05-20 19:57:00,52.2,48.7,29.88,SSW,206,7.0,18.0,88,0.00,,,0.00,14.0,meteohub,2013-05-21 02:57:00,
2013-05-20 20:02:00,52.0,48.6,29.88,West,277,9.0,18.0,88,0.00,,,0.00,11.0,meteohub,2013-05-21 03:02:00,
2013-05-20 20:07:00,51.8,48.7,29.88,WSW,250,4.0,18.0,89,0.00,,,0.00,7.0,meteohub,2013-05-21 03:07:00,
2013-05-20 20:12:00,51.8,48.7,29.88,WNW,282,4.0,18.0,89,0.00,,,0.00,7.0,meteohub,2013-05-21 03:12:00,
2013-05-20 20:17:00,51.6,48.7,29.88,SW,234,8.0,18.0,90,0.00,,,0.00,5.0,meteohub,2013-05-21 03:17:00,
2013-05-20 20:22:00,51.6,48.7,29.88,SW,227,4.0,18.0,90,0.00,,,0.00,0.0,meteohub,2013-05-21 03:22:00,
2013-05-20 20:27:00,51.4,48.6,29.88,NW,325,6.0,18.0,90,0.00,,,0.00,0.0,meteohub,2013-05-21 03:27:00,
2013-05-20 20:32:00,51.4,48.6,29.88,West,273,9.0,15.0,90,0.00,,,0.00,0.0,meteohub,2013-05-21 03:32:00,
2013-05-20 20:37:00,51.4,48.6,29.87,SSW,200,8.0,19.0,90,0.00,,,0.00,0.0,meteohub,2013-05-21 03:37:00,
2013-05-20 20:42:00,51.4,48.6,29.87,West,259,12.0,22.0,90,0.00,,,0.00,0.0,meteohub,2013-05-21 03:42:00,
2013-05-20 20:47:00,51.3,48.4,29.87,West,261,9.0,22.0,90,0.00,,,0.00,0.0,meteohub,2013-05-21 03:47:00,
2013-05-20 20:52:00,51.1,48.2,29.87,WSW,243,11.0,21.0,90,0.00,,,0.00,0.0,meteohub,2013-05-21 03:52:00,
2013-05-20 20:57:00,51.1,48.2,29.87,WSW,238,9.0,22.0,90,0.00,,,0.00,0.0,meteohub,2013-05-21 03:57:00,
2013-05-20 21:01:00,51.1,48.2,29.87,West,273,12.0,22.0,90,0.00,,,0.00,0.0,meteohub,2013-05-21 04:01:00,
2013-05-20 21:06:00,51.1,48.2,29.87,WSW,256,5.0,22.0,90,0.00,,,0.00,0.0,meteohub,2013-05-21 04:06:00,
2013-05-20 21:11:00,50.7,47.8,29.88,SSW,194,5.0,23.0,90,0.00,,,0.00,0.0,meteohub,2013-05-21 04:11:00,
2013-05-20 21:16:00,50.7,47.8,29.87,WSW,256,16.0,23.0,90,0.00,,,0.00,0.0,meteohub,2013-05-21 04:16:00,
2013-05-20 21:21:00,50.7,47.8,29.88,WSW,257,10.0,23.0,90,0.00,,,0.00,0.0,meteohub,2013-05-21 04:21:00,
2013-05-20 21:26:00,50.7,47.8,29.88,SW,236,10.0,22.0,90,0.00,,,0.00,0.0,meteohub,2013-05-21 04:26:00,
2013-05-20 21:31:00,50.7,48.2,29.88,West,263,7.0,20.0,91,0.00,,,0.00,0.0,meteohub,2013-05-21 04:31:00,
2013-05-20 21:36:00,50.7,48.2,29.88,WNW,290,9.0,20.0,91,0.00,,,0.00,0.0,meteohub,2013-05-21 04:36:00,
2013-05-20 21:41:00,50.7,48.2,29.88,WSW,242,12.0,20.0,91,0.00,,,0.00,0.0,meteohub,2013-05-21 04:41:00,
2013-05-20 21:46:00,50.7,48.2,29.88,WSW,246,14.0,18.0,91,0.00,,,0.00,0.0,meteohub,2013-05-21 04:46:00,
2013-05-20 21:51:00,50.7,48.2,29.88,West,277,10.0,18.0,91,0.00,,,0.00,0.0,meteohub,2013-05-21 04:51:00,
2013-05-20 21:56:00,50.7,48.2,29.88,West,262,2.0,26.0,91,0.00,,,0.00,0.0,meteohub,2013-05-21 04:56:00,
2013-05-20 22:01:00,50.7,48.2,29.88,SW,229,7.0,26.0,91,0.00,,,0.00,0.0,meteohub,2013-05-21 05:01:00,
2013-05-20 22:06:00,50.7,48.2,29.88,West,277,8.0,26.0,91,0.00,,,0.00,0.0,meteohub,2013-05-21 05:06:00,
2013-05-20 22:11:00,50.7,48.2,29.88,WSW,239,5.0,23.0,91,0.00,,,0.00,0.0,meteohub,2013-05-21 05:11:00,
2013-05-20 22:16:00,50.7,48.2,29.88,West,279,4.0,22.0,91,0.00,,,0.00,0.0,meteohub,2013-05-21 05:16:00,
2013-05-20 22:21:00,50.7,48.2,29.88,South,186,4.0,22.0,91,0.00,,,0.00,0.0,meteohub,2013-05-21 05:21:00,
2013-05-20 22:26:00,50.5,48.0,29.88,WSW,246,7.0,22.0,91,0.00,,,0.00,0.0,meteohub,2013-05-21 05:26:00,
2013-05-20 22:31:00,50.7,48.2,29.88,WSW,252,5.0,19.0,91,0.00,,,0.00,0.0,meteohub,2013-05-21 05:31:00,
2013-05-20 22:36:00,50.5,48.0,29.89,WNW,301,4.0,18.0,91,0.00,,,0.00,0.0,meteohub,2013-05-21 05:36:00,
2013-05-20 22:41:00,50.5,48.0,29.89,West,281,4.0,17.0,91,0.00,,,0.00,0.0,meteohub,2013-05-21 05:41:00,
2013-05-20 22:46:00,50.5,48.0,29.89,West,261,9.0,17.0,91,0.00,,,0.00,0.0,meteohub,2013-05-21 05:46:00,
2013-05-20 22:51:00,50.5,48.0,29.89,SW,234,3.0,17.0,91,0.00,,,0.00,0.0,meteohub,2013-05-21 05:51:00,
2013-05-20 22:56:00,50.5,48.0,29.89,NW,305,7.0,18.0,91,0.00,,,0.00,0.0,meteohub,2013-05-21 05:56:00,
2013-05-20 23:01:00,50.5,48.0,29.89,WNW,301,4.0,18.0,91,0.00,,,0.00,0.0,meteohub,2013-05-21 06:01:00,
2013-05-20 23:06:00,50.5,48.0,29.90,West,265,4.0,18.0,91,0.00,,,0.00,0.0,meteohub,2013-05-21 06:06:00,
2013-05-20 23:11:00,50.5,48.0,29.89,WNW,287,6.0,19.0,91,0.00,,,0.00,0.0,meteohub,2013-05-21 06:11:00,
2013-05-20 23:16:00,50.5,48.0,29.89,WSW,244,2.0,19.0,91,0.00,,,0.00,0.0,meteohub,2013-05-21 06:16:00,
2013-05-20 23:21:00,50.5,48.0,29.89,SW,236,3.0,19.0,91,0.00,,,0.00,0.0,meteohub,2013-05-21 06:21:00,
2013-05-20 23:26:00,50.5,48.0,29.89,WNW,282,4.0,18.0,91,0.00,,,0.00,0.0,meteohub,2013-05-21 06:26:00,
2013-05-20 23:31:00,50.5,48.0,29.88,SW,230,12.0,15.0,91,0.00,,,0.00,0.0,meteohub,2013-05-21 06:31:00,
2013-05-20 23:36:00,50.5,48.0,29.88,West,265,6.0,17.0,91,0.00,,,0.00,0.0,meteohub,2013-05-21 06:36:00,
2013-05-20 23:41:00,50.4,47.8,29.88,SW,219,13.0,17.0,91,0.00,,,0.00,0.0,meteohub,2013-05-21 06:41:00,
2013-05-20 23:46:00,50.4,47.8,29.88,SW,234,7.0,22.0,91,0.00,,,0.00,0.0,meteohub,2013-05-21 06:46:00,
2013-05-20 23:51:00,50.4,47.8,29.88,West,265,4.0,22.0,91,0.00,,,0.00,0.0,meteohub,2013-05-21 06:51:00,
2013-05-20 23:56:00,50.4,47.8,29.87,SW,222,5.0,22.0,91,0.00,,,0.00,0.0,meteohub,2013-05-21 06:56:00,